Skip Page Navigation
NASA JPL Caltech
NASA Logo - Jet Propulsion Laboratory + View the NASA Portal
+ Near-Earth Object (NEO) Program
Search JPL
JPL Home Earth Solar System Stars & Galaxies Technology
JPL Solar System Dynamics
BODIES ORBITS EPHEMERIDES TOOLS PHYSICAL DATA DISCOVERY FAQ SITE MAP
JPL Small-Body Database Browser
Search: [ help ]  
(2008 UU1)
Classification: Apollo [NEO, PHA]          SPK-ID: 3432688
Ephemeris | Orbit Diagram | Orbital Elements | Physical Parameters | Close-Approach Data ]

[ hide orbit diagram ]
Orbit Diagram
Note: Make sure you have Java enabled on your browser to see the applet. This applet is provided as a 3D orbit visualization tool. The applet was implemented using 2-body methods, and hence should not be used for determining accurate long-term trajectories (over several years or decades) or planetary encounter circumstances. For accurate long-term ephemerides, please instead use our Horizons system.
Orbit Viewer

Additional Notes: the orbits shown in the applet are color coded. The planets are white lines, and the asteroid/comet is a blue line. The bright white line indicates the portion of the orbit that is above the ecliptic plane, and the darker portion is below the ecliptic plane. Likewise for the asteroid/comet orbit, the light blue indicates the portion above the ecliptic plane, and the dark blue the portion below the ecliptic plane.

Orbit Viewer applet originally written and kindly provided by Osamu Ajiki (AstroArts), and further modified by Ron Baalke (JPL).


Orbital Elements at Epoch 2456400.5 (2013-Apr-18.0) TDB
Reference: JPL 13 (heliocentric ecliptic J2000)
 Element Value Uncertainty (1-sigma)   Units 
e .7506646310180012 1.3366e-06  
a 1.608026999927111 9.9725e-08 AU
q .4009380053598428 2.1414e-06 AU
i 12.05782224325939 6.6017e-05 deg
node 157.4551093261502 0.000907 deg
peri 118.676022729304 0.00083331 deg
M 96.91770780678489 8.0939e-05 deg
tp 2456199.988601938339
(2012-Sep-29.48860194)
0.00015054 JED
period 744.7978799303025
2.04
6.9285e-05
1.897e-07
d
yr
n .4833526110918689 4.4964e-08 deg/d
Q 2.815115994494379 1.7458e-07 AU
  Orbit Determination Parameters
   # obs. used (total)      33  
   data-arc span      741 days (2.03 yr)  
   first obs. used      2008-10-22  
   last obs. used      2010-11-02  
   planetary ephem.      DE405  
   SB-pert. ephem.      SB405-CPV-2  
   condition code      1  
   fit RMS      .62455  
   data source      ORB  
   producer      Otto Matic  
   solution date      2011-Sep-14 20:35:20  

Additional Information
 Earth MOID = .0204148 AU 
 T_jup = 3.954 
[ show covariance matrix ]

Ephemeris | Orbit Diagram | Orbital Elements | Physical Parameters | Close-Approach Data ]

Physical Parameter Table
Parameter Symbol Value Units Sigma Reference Notes
absolute magnitude H 19.98 mag .42964 13 autocmod 2.5a

[ show close-approach data ]
Ephemeris | Orbit Diagram | Orbital Elements | Physical Parameters | Close-Approach Data ]
ABOUT SSD CREDITS/AWARDS PRIVACY/COPYRIGHT GLOSSARY LINKS
FirstGov 2013-May-25 09:42 UT
(server date/time)  
NASA Home Page
Site Manager:   Donald K. Yeomans
Webmaster  Alan B. Chamberlin